Vertical_Velocity
-0 2 -2 -7 -4 -3 1 -1 -1 0 3 -6 -2 -1 -5 -4 -0 -1 1 -0 2 1 4 16 3 7 3 10 -7 -6 -10 -5 -9 2 13 -6 -48 -1 2 9 13 7 3 -1
4 -1 -3 -1 1 1 2 -1 4 8 3 -6 1 -2 -3 0 -0 1 -0 0 2 0 2 1 4 4 7 5 1 0 -2 5 8 -3 7 17 -2 -7 10 3 4 -3 7 2
2 -0 0 -1 1 1 1 -5 0 -6 2 1 -0 -1 1 -4 0 -3 -0 -0 2 0 -0 4 -0 -3 8 -8 3 3 -3 3 -2 14 4 -8 6 1 6 0 11 -2 6 5
-1 1 -1 1 -0 -4 0 -2 -3 -1 3 2 2 -3 -1 -1 -4 0 -0 -1 -2 0 -1 -2 1 2 1 5 7 6 4 -6 4 -8 4 -3 -4 -14 1 -3 4 3 3 2
2 1 0 -0 -3 -1 0 -3 -3 -2 -1 -3 -2 -3 -6 -1 -4 -3 -2 -3 -5 -5 -2 -1 -2 1 6 7 2 11 9 2 3 -3 1 10 10 3 -6 10 15 12 12 12
1 -1 -3 -1 0 -2 -0 -6 -2 -1 0 -4 -1 -3 -6 -1 -4 -0 -1 -4 -1 -3 -3 -2 -2 -1 -4 -0 3 1 -1 -2 4 3 -4 4 5 2 8 6 7 2 3 5
-5 1 -1 -2 -7 -4 -5 -5 -2 -5 -4 -0 0 -1 -9 -1 -2 0 -1 -3 -1 4 -2 -2 -3 -2 -0 -0 0 3 2 2 6 -1 3 -1 5 -0 1 0 6 -3 -3 -4
-2 -9 -2 -4 1 -1 1 -1 -4 -2 -1 1 -1 -2 -12 0 0 1 2 1 1 1 -2 -3 -5 0 -1 -2 0 -1 -2 -1 4 4 1 1 -0 -0 1 0 5 3 2 -4
-2 2 -2 -2 -0 -3 -7 -3 -2 -5 -0 -5 -2 -7 -6 -1 -1 -1 2 2 2 1 -1 2 2 -2 -3 0 -2 2 1 1 -2 -3 -2 -2 1 6 2 2 1 -1 3 -0
0 -2 1 -2 -2 -1 -5 -2 -2 -5 -3 -0 -1 -1 -3 -4 -1 -0 -1 1 3 4 4 3 1 1 -2 -4 -2 -0 -2 1 4 4 3 1 -2 -2 -2 -3 2 2 -2 -1
-1 -8 -4 -4 -1 1 -7 -2 -4 -7 -2 -3 -1 -4 -2 -1 -1 1 1 1 2 1 2 -2 -1 1 -3 -3 -1 -5 -4 -2 1 0 -2 1 3 1 1 -0 1 11 6 6
1 -2 -1 1 -2 1 1 0 -0 -6 -2 -0 -2 -7 0 0 0 -0 1 2 2 2 -3 -2 -4 -2 1 -1 -3 2 1 -1 -6 -6 -8 -5 -7 -7 -1 0 -0 -3 -0 3
-1 -3 -3 -11 -12 -5 -2 -0 -0 -1 -3 -0 -4 -9 -0 -0 -0 1 -0 -0 -0 0 3 3 3 1 -1 -1 2 1 -2 0 2 4 2 1 2 1 -1 -4 -0 0 -2 2
-4 -1 -4 -8 -6 -2 1 0 0 -3 -3 -2 -4 -2 -3 -2 -0 -2 -2 0 -1 -2 -4 -3 -0 1 1 2 5 6 6 1 1 1 2 0 -1 3 3 3 5 -2 -1 -4
-5 -2 -1 1 0 -1 0 0 0 -1 -1 -6 -3 -1 -3 -1 -0 -1 0 0 -1 -5 -2 -0 -2 -1 0 -1 1 0 1 1 3 3 3 5 0 0 1 4 4 1 -0 -10
-1 -2 -1 -1 -1 -0 -0 -0 0 -0 0 0 0 -4 -1 -1 -0 -2 -2 -1 -2 -1 0 -0 -1 -0 -1 1 -0 -1 -0 -1 1 -2 1 2 2 1 1 2 0 -2 1 -5
-2 -1 -2 -2 0 -1 -6 -0 -0 -0 -0 -0 -1 -6 0 -3 -1 0 -1 2 -2 -2 -1 -1 2 1 -1 -3 0 0 2 2 1 -0 3 2 0 -2 2 2 1 2 -0 0
-1 -1 -1 -1 -4 -7 -13 -0 -1 -2 -1 -0 -1 -1 2 2 1 1 5 0 0 -0 -2 -4 -1 -2 1 -0 -0 1 3 2 -1 2 1 1 -1 3 2 2 4 1 1 3
-1 -2 -1 -3 -1 -8 -1 -1 -0 -2 -0 2 1 -1 -0 -3 -2 -6 2 6 6 4 2 2 4 2 2 2 4 -1 -1 1 -1 -4 -1 -3 1 1 1 -1 -2 -0 -1 -2
-1 -2 -6 -1 -1 -1 -6 0 1 -1 -2 1 1 1 1 -4 -4 -6 -8 -4 -5 1 -0 -7 -4 -7 -5 -1 -1 -3 -4 1 -3 -3 2 3 1 1 -1 2 -2 -0 1 -1
-1 -1 -2 0 -0 -7 -2 -1 1 -2 -10 1 1 1 0 -1 -2 -5 -4 -6 1 -3 -7 -1 -1 -6 -3 -4 -0 -3 0 -6 0 4 4 7 1 -0 5 4 -1 0 0 -0
-4 -4 -1 -1 -0 -8 0 -1 -2 -3 -1 -0 -1 0 -0 -0 -2 -2 -1 -3 -2 -1 -2 1 -2 -4 -4 2 -1 -3 -3 4 2 1 2 2 3 1 1 3 2 0 -0 -1
-4 -7 -7 -9 -10 -2 1 -2 0 0 1 -0 2 -1 2 3 0 -1 -5 -4 -1 -3 -4 -0 -1 -4 1 -1 2 -4 0 -0 2 1 0 2 4 2 2 0 -0 -1 -0 1
-0 -0 -1 -1 -1 -1 1 2 0 -1 0 1 2 2 1 1 -2 -1 -1 -3 -4 -5 -2 -2 -2 1 -5 2 3 -1 1 -0 1 1 -0 1 3 1 3 3 1 0 1 1
-5 -1 -2 -3 -1 0 2 0 3 0 3 1 -0 1 -0 3 -1 1 -1 -1 -1 -3 0 -1 -2 -3 -2 4 -1 -1 2 -1 -1 2 4 1 1 3 3 4 4 2 1 1
-3 -6 -4 -7 -3 -3 -1 -0 -2 -4 -6 -3 0 -2 -4 3 -1 1 -2 -2 -1 -1 2 0 -5 2 -4 4 -2 2 4 0 -2 2 3 -0 3 1 -1 2 -3 1 -3 0
Height
1459 1457 1452 1455 1454 1456 1456 1455 1455 1457 1464 1468 1479 1480 1479 1473 1464 1461 1460 1463 1465 1468 1473 1475 1483 1489 1494 1501 1504 1508 1513 1512 1516 1520 1519 1522 1525 1527 1530 1532 1535 1538 1541 1543
1457 1450 1446 1452 1452 1457 1454 1454 1454 1459 1466 1474 1474 1476 1469 1460 1463 1464 1462 1464 1465 1467 1472 1475 1480 1488 1492 1496 1499 1502 1504 1508 1510 1511 1514 1516 1518 1525 1527 1530 1532 1536 1537 1539
1452 1444 1444 1450 1451 1450 1450 1450 1454 1456 1465 1473 1471 1470 1471 1468 1463 1466 1465 1464 1466 1468 1471 1475 1482 1485 1489 1491 1494 1497 1500 1504 1507 1510 1513 1516 1520 1523 1525 1526 1526 1530 1534 1535
1446 1443 1445 1447 1447 1446 1450 1447 1448 1454 1466 1463 1471 1476 1471 1468 1463 1465 1464 1463 1463 1467 1472 1476 1479 1483 1486 1490 1494 1499 1499 1502 1505 1508 1510 1511 1515 1518 1519 1523 1523 1527 1527 1529
1443 1443 1446 1448 1444 1445 1446 1447 1451 1457 1462 1467 1474 1472 1465 1469 1468 1465 1460 1464 1466 1467 1471 1476 1480 1482 1485 1489 1492 1496 1498 1502 1504 1505 1507 1509 1509 1512 1515 1518 1520 1520 1522 1523
1438 1447 1449 1444 1440 1439 1442 1449 1458 1465 1468 1478 1475 1473 1465 1467 1465 1456 1459 1462 1464 1467 1469 1473 1478 1481 1484 1487 1490 1493 1494 1497 1498 1502 1504 1504 1506 1508 1511 1511 1514 1515 1518 1519
1442 1442 1443 1444 1444 1445 1446 1456 1476 1476 1474 1478 1473 1474 1466 1461 1459 1458 1458 1456 1459 1465 1469 1471 1473 1477 1480 1483 1484 1486 1489 1492 1494 1496 1498 1499 1503 1505 1506 1507 1509 1510 1514 1517
1470 1459 1455 1452 1456 1457 1460 1459 1471 1466 1473 1475 1473 1478 1465 1458 1459 1459 1457 1457 1458 1462 1467 1470 1471 1472 1475 1477 1480 1482 1483 1486 1487 1490 1492 1495 1497 1500 1500 1503 1504 1507 1509 1512
1466 1462 1460 1459 1458 1461 1462 1472 1462 1479 1485 1490 1485 1476 1462 1460 1461 1462 1461 1459 1460 1463 1467 1470 1472 1472 1470 1471 1474 1476 1479 1482 1484 1487 1489 1491 1494 1494 1495 1498 1499 1503 1505 1507
1460 1461 1464 1461 1458 1459 1458 1461 1471 1481 1484 1479 1488 1482 1477 1470 1467 1465 1463 1463 1465 1465 1467 1468 1469 1469 1469 1470 1470 1472 1474 1476 1479 1482 1485 1488 1489 1490 1491 1493 1496 1498 1502 1504
1459 1466 1471 1467 1471 1468 1466 1466 1469 1474 1485 1484 1488 1482 1474 1474 1472 1468 1467 1466 1465 1465 1465 1466 1468 1468 1468 1468 1468 1470 1471 1473 1476 1479 1482 1484 1485 1486 1488 1490 1494 1497 1500 1504
1464 1472 1481 1477 1472 1469 1468 1469 1471 1483 1484 1507 1497 1486 1473 1472 1468 1466 1467 1466 1468 1466 1466 1468 1468 1468 1468 1468 1468 1470 1471 1473 1476 1479 1482 1482 1483 1485 1487 1488 1490 1493 1497 1501
1465 1479 1497 1487 1480 1473 1474 1473 1477 1482 1490 1502 1503 1486 1472 1471 1469 1467 1467 1465 1465 1466 1467 1467 1467 1468 1469 1470 1469 1469 1469 1470 1473 1474 1475 1476 1478 1480 1482 1485 1489 1491 1495 1498
1464 1478 1479 1494 1480 1479 1476 1476 1478 1484 1505 1493 1496 1478 1471 1470 1468 1465 1465 1465 1465 1465 1465 1464 1463 1464 1465 1466 1466 1465 1464 1464 1467 1469 1471 1473 1475 1478 1480 1483 1485 1487 1490 1494
1468 1483 1488 1480 1477 1478 1477 1477 1480 1492 1484 1493 1483 1485 1475 1472 1471 1467 1465 1464 1464 1463 1463 1463 1461 1461 1462 1462 1462 1461 1461 1462 1463 1464 1465 1467 1470 1473 1476 1478 1479 1482 1486 1489
1472 1489 1487 1487 1484 1482 1478 1478 1480 1481 1482 1486 1486 1485 1474 1473 1470 1467 1466 1465 1463 1463 1463 1463 1462 1460 1459 1458 1458 1458 1459 1460 1460 1461 1462 1463 1465 1469 1473 1473 1475 1478 1481 1485
1476 1482 1488 1494 1488 1483 1489 1478 1481 1484 1483 1481 1481 1476 1474 1471 1470 1469 1468 1466 1464 1463 1462 1460 1458 1456 1455 1456 1456 1455 1455 1454 1454 1456 1458 1459 1460 1465 1468 1469 1471 1474 1477 1480
1478 1483 1489 1499 1490 1503 1482 1477 1477 1477 1477 1476 1477 1476 1475 1475 1473 1471 1470 1468 1467 1466 1465 1463 1460 1456 1454 1451 1450 1448 1447 1446 1447 1449 1451 1453 1456 1459 1460 1463 1466 1469 1472 1475
1477 1484 1493 1497 1503 1491 1477 1477 1477 1477 1480 1482 1480 1480 1480 1477 1473 1469 1469 1469 1468 1466 1464 1460 1457 1453 1448 1446 1443 1440 1439 1439 1440 1442 1445 1447 1449 1452 1454 1457 1462 1465 1468 1470
1480 1482 1491 1499 1498 1489 1482 1479 1477 1477 1487 1484 1484 1483 1481 1477 1480 1471 1468 1467 1464 1461 1458 1454 1451 1448 1445 1442 1439 1436 1435 1434 1434 1437 1438 1441 1444 1447 1449 1453 1457 1461 1463 1465
1488 1491 1493 1494 1499 1490 1481 1479 1478 1482 1490 1483 1482 1481 1479 1479 1477 1470 1465 1461 1459 1456 1453 1450 1446 1443 1442 1440 1436 1432 1430 1427 1429 1430 1432 1436 1438 1442 1445 1449 1452 1456 1458 1460
1485 1494 1496 1500 1500 1501 1479 1479 1479 1485 1483 1481 1479 1479 1477 1473 1469 1465 1459 1455 1451 1446 1443 1441 1439 1436 1435 1433 1430 1427 1423 1422 1421 1422 1426 1430 1433 1436 1441 1444 1447 1450 1453 1454
1484 1482 1486 1489 1486 1479 1479 1479 1480 1481 1478 1478 1476 1473 1470 1466 1462 1457 1451 1447 1442 1438 1435 1432 1430 1427 1426 1425 1423 1419 1417 1414 1413 1415 1419 1424 1428 1432 1435 1439 1441 1444 1447 1449
1477 1478 1481 1481 1477 1477 1478 1479 1478 1477 1476 1475 1472 1468 1466 1461 1457 1451 1447 1440 1435 1430 1426 1424 1420 1417 1416 1416 1415 1413 1411 1407 1406 1408 1412 1417 1422 1426 1429 1432 1435 1439 1442 1445
1476 1477 1479 1478 1475 1475 1475 1475 1475 1474 1473 1471 1468 1466 1461 1456 1450 1446 1438 1433 1428 1423 1420 1416 1412 1409 1407 1407 1407 1407 1406 1404 1403 1405 1408 1412 1417 1421 1424 1427 1431 1434 1437 1441
1467 1469 1474 1473 1469 1471 1473 1473 1472 1470 1469 1466 1463 1459 1456 1452 1446 1441 1435 1429 1422 1416 1411 1407 1403 1400 1399 1399 1401 1402 1401 1401 1402 1404 1406 1410 1414 1417 1419 1423 1426 1429 1433 1435